Weather History for KCTY - March, 2012

Change the Weather History Date:

Tuesday, March 13, 2012

  Actual Average Record
Temperature  
Mean Temperature 67 °F 62 °F  
Max Temperature 82 °F 76 °F 86 °F (2003)
Min Temperature 53 °F 48 °F 33 °F (1998)
Degree Days  
Heating Degree Days 0 5  
Month to date heating degree days 75  
Since 1 July heating degree days 1195  
Cooling Degree Days 2 1  
Month to date cooling degree days 13  
Year to date cooling degree days 40  
Growing Degree Days 17 (Base 50)    
Moisture  
Dew Point 57 °F    
Average Humidity 72    
Maximum Humidity 96    
Minimum Humidity 45    
Precipitation  
Precipitation 0.00 in 0.15 in 0.31 in (2001)
Month to date precipitation 1.74  
Year to date precipitation 9.05  
Sea Level Pressure  
Sea Level Pressure 30.24 in    
Wind  
Wind Speed 2 mph (West)    
Max Wind Speed 10 mph    
Max Gust Speed -    
T = Trace of Precipitation, MM = Missing Value Source: NWS Daily Summary

Daily Weather History Graph

Daily Weather History Graph

Search for Another Location

Airport or City:

Trip Planner

Search our weather history database for the weather conditions in past years. The results will help you decide how hot, cold, wet, or windy it might be!

Date:

Astronomy

Mar. 13, 2012 Rise Set
Actual Time 7:43 AM EDT 7:39 PM EDT
Civil Twilight 7:20 AM EDT 8:03 PM EDT
Nautical Twilight 6:52 AM EDT 8:31 PM EDT
Astronomical Twilight 6:24 AM EDT 8:59 PM EDT
Moon 12:42 AM EDT (3/13) 11:24 AM EDT (3/13)
Length of Visible Light 12h 43m
Length of Day
11h 55m
Waning Gibbous, 66% of the Moon is Illuminated
Mar 13
Waning Gibbous
Mar 14
Last Quarter
Mar 22
New
Mar 30
First Quarter
Apr 6
Full

Hourly Weather History & Observations

Time (EDT) Temp. Heat Index Dew Point Humidity Pressure Visibility Wind Dir Wind Speed Gust Speed Precip Events Conditions
12:53 AM 64.9 °F - 57.0 °F 75% 30.26 in - Calm Calm - N/A   Unknown
1:53 AM 60.1 °F - 55.9 °F 86% 30.27 in - Calm Calm - N/A   Unknown
2:53 AM 57.0 °F - 55.0 °F 93% 30.26 in - Calm Calm - N/A   Unknown
3:53 AM 57.0 °F - 54.0 °F 89% 30.24 in - Calm Calm - N/A   Unknown
4:53 AM 55.0 °F - 54.0 °F 96% 30.23 in - Calm Calm - N/A   Unknown
5:53 AM 53.1 °F - 52.0 °F 96% 30.24 in - Calm Calm - N/A   Unknown
6:53 AM 53.1 °F - 51.1 °F 93% 30.25 in - Calm Calm - N/A   Unknown
7:53 AM 53.1 °F - 51.1 °F 93% 30.27 in - Calm Calm - N/A   Unknown
8:53 AM 59.0 °F - 55.9 °F 90% 30.28 in - Calm Calm - N/A   Unknown
9:53 AM 68.0 °F - 59.0 °F 73% 30.28 in - SSE 5.8 mph - N/A   Unknown
10:53 AM 73.0 °F - 59.0 °F 61% 30.29 in - South 6.9 mph - N/A   Unknown
11:53 AM 75.9 °F - 57.9 °F 54% 30.29 in - Calm Calm - N/A   Unknown
12:53 PM 78.1 °F - 59.0 °F 52% 30.27 in - Calm Calm - N/A   Unknown
1:53 PM 81.0 °F 81.1 °F 57.9 °F 45% 30.24 in - Variable 5.8 mph - N/A   Unknown
2:53 PM 80.1 °F 80.6 °F 57.9 °F 47% 30.21 in - Calm Calm - N/A   Unknown
3:53 PM 80.1 °F 80.6 °F 57.9 °F 47% 30.19 in - West 3.5 mph - N/A   Unknown
4:53 PM 81.0 °F 81.6 °F 60.1 °F 49% 30.18 in - WSW 8.1 mph - N/A   Unknown
5:53 PM 77.0 °F - 59.0 °F 54% 30.18 in - West 10.4 mph - N/A   Unknown
6:53 PM 75.0 °F - 57.9 °F 55% 30.19 in - West 8.1 mph - N/A   Unknown
7:53 PM 71.1 °F - 57.9 °F 63% 30.20 in - West 5.8 mph - N/A   Unknown
8:53 PM 68.0 °F - 60.1 °F 76% 30.22 in - WNW 3.5 mph - N/A   Unknown
9:53 PM 66.9 °F - 60.1 °F 79% 30.22 in - NW 3.5 mph - N/A   Unknown
10:53 PM 64.0 °F - 59.0 °F 84% 30.23 in - Calm Calm - N/A   Unknown
11:53 PM 61.0 °F - 57.9 °F 90% 30.24 in - Calm Calm - N/A   Unknown